sat.trackr.live / text

‹ back to catalog

STARLINK-31872

NORAD 59922 · 2024-106A

PAYLOAD ACTIVE UNKNOWN

§ Identity

Operator
Country
US
Launch date
2024-06-01
Launch site
AFETR
Launch vehicle
Mass (kg)
RCS (m²)

Purposes: comms

External: N2YO · Heavens-Above · Gunter

§ Orbital elements

Epoch: 2026-09-21T10:08:14.984160Z

Period
94.27 min
Inclination
43.0012°
Eccentricity
0.0001942
Mean motion
15.27573324 rev/d
Perigee alt
481.7 km
Apogee alt
484.4 km
Semi-major
6,861.2 km
B*
3.0239e-5
RAAN
307.4667°
Arg perigee
278.7139°
Mean anomaly
81.3493°
Rev number
13,049

§ Raw data

STARLINK-318721 59922U 24106A   26264.42239565  .00000570  00000+0  30239-4 0  99982 59922  43.0012 307.4667 0001942 278.7139  81.3493 15.27573324130499

JSON: /api/v1/satellites/59922 · /tle

For live sub-satellite position, see the globe view (requires WebGL).

§ Visibility from observer

Set your observer location to see the next 7 days of passes ≥ 10°. The values pass through the URL so the page stays shareable.

No JS? Fill the form by hand. The geolocation button needs JavaScript.